Temperature
14 14 15 15 16 16 18 21 23 24 24 25 25 25 24 23 22 20 18 18 17 18 18 18 18 17 17 17 17 17 17 17 17 17 17 16 16 16 16 16 16 16 16 16 16 16 16 16 16
13 14 14 16 16 17 19 21 22 23 24 24 24 24 23 21 20 18 18 17 17 17 17 17 17 17 17 17 17 17 17 17 17 17 17 16 16 16 16 16 16 16 16 16 16 16 16 16 16
13 14 15 16 17 18 20 22 22 23 23 23 23 23 22 21 19 18 18 17 17 16 17 17 17 17 17 16 16 16 16 16 16 16 16 16 16 16 16 16 16 16 15 16 16 16 16 16 16
13 14 15 16 17 19 21 22 22 22 22 23 22 22 20 19 18 18 17 17 16 16 16 16 16 16 16 16 16 16 16 16 16 16 16 16 16 16 16 16 16 16 15 15 15 15 15 15 15
13 14 15 16 17 20 21 22 22 22 22 22 22 20 18 18 18 17 17 17 16 16 16 16 16 16 16 16 16 16 16 16 16 16 16 16 16 16 16 15 15 15 15 15 15 15 15 15 15
13 15 15 16 18 20 21 22 22 21 22 22 22 20 18 17 17 17 17 16 16 16 16 16 15 16 16 16 16 16 16 16 16 16 16 16 16 15 15 15 15 15 15 15 15 15 15 15 15
13 14 15 17 18 19 21 22 21 21 21 22 22 19 17 16 16 16 16 16 15 15 15 15 15 15 15 15 15 15 16 16 15 15 15 15 15 15 15 15 15 15 15 15 15 15 15 15 15
13 14 15 16 18 19 20 21 21 21 21 21 21 19 17 16 16 16 15 15 15 15 15 15 15 15 15 15 15 15 15 15 15 15 15 15 15 15 15 15 15 15 15 15 15 15 15 15 14
13 13 14 16 17 19 20 20 20 20 20 19 19 18 17 16 15 15 15 15 15 14 14 14 14 14 15 15 15 15 15 15 15 15 15 15 15 15 15 15 15 15 15 15 15 14 14 14 14
13 13 15 17 18 18 19 19 19 19 18 18 17 17 16 15 15 15 15 14 14 14 14 14 14 14 14 14 14 14 14 14 14 14 14 15 14 14 15 15 14 14 14 14 14 14 14 14 14
13 13 15 17 18 18 18 18 18 18 17 18 17 16 15 15 14 14 14 14 14 14 14 13 14 14 14 14 14 14 14 14 14 14 14 14 14 14 14 14 14 14 14 14 14 13 13 13 13
13 14 16 16 16 16 17 17 17 17 18 18 17 16 15 15 14 14 14 14 14 13 13 13 13 14 14 14 14 14 14 14 14 14 14 14 14 14 14 14 14 14 14 13 13 13 13 13 13
13 14 15 16 15 15 16 16 16 16 17 17 16 15 15 14 14 14 14 14 14 13 13 13 13 13 14 14 14 13 14 14 14 14 13 13 13 13 13 13 13 13 13 13 13 13 13 12 12
13 14 14 15 15 15 15 15 15 16 16 16 15 15 14 14 14 14 14 14 13 13 13 13 13 13 14 14 13 13 13 13 13 13 13 13 13 13 13 13 13 13 13 13 12 12 12 12 12
13 13 13 14 15 15 15 14 14 15 15 15 15 14 14 14 14 14 14 14 13 13 13 13 13 13 13 13 13 13 13 13 13 13 13 13 13 13 12 12 12 12 12 12 12 12 12 12 11
12 11 11 13 14 14 14 12 14 15 15 15 15 14 14 14 13 13 13 13 13 13 13 13 13 13 13 13 13 13 13 13 13 12 12 12 12 12 12 12 12 12 12 12 11 11 11 11 11
10 10 11 12 14 14 13 13 14 15 15 15 15 14 14 13 13 12 12 13 13 12 12 12 12 13 13 13 12 12 12 12 12 12 12 12 12 12 12 12 11 11 11 11 11 11 11 11 11
9 10 11 12 13 13 13 13 13 14 14 14 14 14 13 13 12 12 12 12 12 12 12 12 12 12 12 12 12 12 12 11 12 12 12 11 11 11 11 11 11 11 11 11 10 10 10 10 10
11 11 11 12 13 13 12 12 13 13 13 13 14 14 13 12 12 11 11 12 12 12 12 12 12 12 12 12 12 12 11 11 11 11 11 11 11 11 11 11 11 10 10 10 10 10 10 10 9
11 10 11 12 13 12 12 12 12 13 12 13 13 13 12 12 11 11 11 11 11 11 11 11 11 11 11 12 12 11 11 11 11 11 11 11 11 11 11 11 10 10 10 10 10 10 9 9 9
10 10 10 10 11 12 11 10 11 12 13 13 12 12 12 11 11 10 10 10 10 10 11 11 11 11 11 11 11 11 11 11 10 10 10 10 10 10 10 10 10 10 10 9 9 9 9 9 8
9 10 11 10 9 9 10 9 11 11 11 11 11 11 11 11 10 10 9 9 10 10 10 10 10 10 10 10 11 11 11 11 10 10 10 10 10 10 10 10 10 10 9 9 9 9 9 8 8
9 10 10 10 9 9 10 9 10 11 11 11 10 11 11 10 10 9 9 9 9 9 9 9 10 10 10 10 10 10 10 10 10 10 10 10 9 10 9 9 9 9 9 9 9 9 8 8 8
9 9 9 9 8 7 9 9 9 10 10 10 10 10 10 10 9 9 8 8 8 9 9 9 9 9 9 9 9 10 10 10 10 9 9 9 9 9 9 9 9 9 9 9 8 8 8 8 7
8 7 6 6 7 7 10 9 9 10 10 10 10 10 10 9 8 8 8 8 8 8 8 8 8 9 9 9 9 9 9 9 9 9 9 9 9 9 9 9 9 9 8 8 8 8 8 7 7
7 7 6 6 7 8 9 8 8 10 10 10 10 10 9 9 8 8 7 7 7 7 8 8 8 8 8 8 9 9 9 9 9 9 9 9 9 9 9 8 8 8 8 8 8 8 7 7 7
6 6 7 7 7 7 8 9 9 9 9 9 9 9 8 8 7 7 7 7 7 7 7 7 7 8 8 8 8 8 8 8 8 8 8 8 8 8 8 8 8 8 8 8 7 7 7 7 6
7 7 6 6 6 7 8 8 8 8 8 8 8 8 8 7 7 7 6 6 6 6 7 7 7 7 7 8 8 8 8 8 8 8 8 8 8 8 8 8 8 7 7 7 7 7 7 6 6
6 6 6 6 6 6 7 7 8 8 8 7 7 8 7 7 6 6 6 6 6 6 6 6 6 6 7 7 7 7 7 7 7 7 7 7 7 7 7 7 7 7 7 7 7 6 6 6 6
6 6 5 5 5 6 6 6 8 8 8 7 7 7 7 6 6 5 5 5 5 5 5 5 6 6 6 6 6 7 7 7 7 7 7 7 7 7 7 7 7 7 7 6 6 6 6 6 5
Wind_Speed
9 11 8 3 4 6 12 10 9 7 5 3 2 1 2 2 2 6 5 6 12 14 16 16 16 15 14 14 13 13 13 13 12 12 11 11 11 11 10 10 10 10 9 9 9 9 9 9 9
10 8 5 4 6 9 11 12 11 6 3 1 2 2 2 3 5 8 6 8 12 13 15 15 16 16 15 14 14 14 13 13 13 13 12 12 11 11 10 10 10 9 9 8 8 8 8 8 8
10 8 5 5 8 11 9 8 8 4 3 3 2 1 1 2 4 6 8 10 12 12 15 16 17 16 15 15 14 14 14 14 14 13 13 12 12 11 11 10 10 9 9 9 9 9 8 8 7
5 4 5 8 14 13 11 5 2 4 3 3 3 3 2 3 4 7 9 11 12 12 15 17 17 16 16 15 15 14 14 14 13 13 13 12 12 12 11 11 10 10 10 10 9 8 8 7 7
4 4 7 11 16 14 11 6 2 4 5 6 5 3 3 3 9 10 8 10 12 12 14 16 17 16 16 15 15 14 14 13 13 13 12 12 12 11 11 11 11 11 10 10 9 8 8 7 6
4 5 8 13 15 14 11 6 3 4 4 5 6 3 2 6 9 8 8 9 11 12 13 15 16 16 16 15 14 14 14 13 13 12 12 12 12 11 11 11 10 10 9 8 8 8 7 7 6
6 6 11 12 13 13 11 6 5 5 5 5 4 4 4 7 7 7 8 8 11 12 12 12 14 15 15 15 14 14 13 13 12 12 12 12 11 11 10 10 10 9 8 8 7 7 6 6 6
5 4 10 13 13 11 7 5 4 5 4 1 1 2 5 8 8 7 7 7 9 10 10 10 12 13 13 13 14 13 13 13 12 12 11 11 11 10 10 10 9 8 8 7 7 6 5 5 4
5 7 10 12 11 8 4 4 3 3 0 1 2 2 8 11 8 7 7 7 7 8 8 8 9 10 12 12 13 13 12 12 11 11 10 8 8 9 10 9 8 7 7 7 6 5 4 3 2
7 9 12 9 7 6 3 3 2 3 4 3 3 6 11 10 9 8 8 8 8 8 7 7 8 9 10 10 10 10 9 9 9 8 8 8 8 8 8 8 7 6 5 5 4 3 3 2 2
7 10 11 10 6 5 2 3 3 5 6 6 7 10 11 10 9 8 8 8 8 8 7 7 7 8 8 6 7 6 7 7 8 8 8 8 7 6 6 5 5 4 4 3 2 2 3 3 3
9 12 12 9 4 5 4 3 5 7 4 2 6 10 10 10 10 9 8 8 8 8 7 7 6 6 7 7 6 6 5 5 6 7 7 7 5 4 4 3 4 3 4 3 3 2 3 4 4
13 11 11 8 5 5 5 6 6 6 3 0 5 8 8 9 8 8 7 8 8 8 8 7 7 6 6 5 5 5 5 6 7 7 7 6 5 3 3 3 4 4 4 3 3 3 3 3 4
9 10 11 9 7 7 7 7 6 6 3 3 7 8 8 8 8 7 7 7 8 9 8 7 7 6 7 5 4 5 6 7 7 7 7 7 6 4 3 3 3 4 4 4 3 3 3 2 3
7 9 10 10 9 7 5 9 9 7 5 5 7 8 7 6 6 6 6 6 7 8 8 8 7 7 7 6 6 6 7 7 6 7 7 7 6 5 4 3 3 3 4 4 4 3 3 2 2
5 8 9 10 10 7 6 10 7 6 7 7 7 7 7 6 6 5 5 5 6 8 8 8 8 8 7 6 6 6 6 7 6 7 7 7 6 6 5 3 3 3 3 3 2 2 2 2 2
6 8 10 8 10 7 9 8 5 5 7 7 7 6 6 6 5 5 5 5 6 7 8 7 7 8 7 6 6 6 6 6 6 7 6 6 6 6 5 3 3 3 3 2 2 2 2 2 3
9 8 10 10 8 8 10 7 4 5 5 5 5 5 5 6 5 6 5 5 5 6 7 7 7 8 8 6 5 5 5 4 5 6 6 7 6 6 5 4 3 3 2 2 2 2 2 2 2
7 9 10 8 5 7 9 8 6 5 6 5 4 5 5 5 5 5 5 5 5 5 6 7 7 7 7 6 5 5 4 4 4 5 7 7 6 5 5 3 3 2 2 2 2 2 2 2 2
9 9 9 4 3 5 7 8 6 5 6 5 5 5 5 4 4 5 5 6 5 5 5 6 6 7 7 5 5 4 5 4 4 4 5 6 6 5 4 4 2 2 2 2 2 2 1 2 2
8 8 7 4 4 5 4 6 8 6 6 5 4 3 4 5 5 5 5 5 5 5 5 5 6 6 7 7 6 5 4 4 3 4 3 5 6 5 4 4 3 2 2 2 1 1 2 1 2
8 6 6 5 4 4 6 4 6 7 6 5 4 4 3 3 4 5 5 4 5 4 4 4 5 5 6 7 7 8 6 5 4 4 4 4 5 5 5 4 3 2 2 2 1 1 1 1 0
4 3 5 6 5 3 5 4 4 7 7 6 5 4 4 4 4 4 4 4 4 5 5 4 5 5 5 6 7 7 6 4 4 5 6 5 4 5 5 4 3 2 2 2 1 1 1 1 1
1 0 2 3 2 5 8 6 4 5 7 6 5 4 4 5 4 4 4 3 3 4 4 4 5 5 5 5 6 6 7 7 7 6 6 5 3 3 4 4 3 3 2 2 1 1 1 1 1
2 3 2 3 4 5 6 5 3 2 3 6 5 4 4 5 4 4 4 4 3 3 4 4 5 5 5 5 5 6 6 7 8 7 6 5 4 3 3 3 3 2 2 2 2 1 1 1 1
5 4 3 3 4 3 6 6 3 2 3 3 4 4 4 4 4 3 3 3 3 3 3 4 4 5 5 5 4 4 5 5 4 5 5 5 4 3 4 3 3 3 3 2 2 1 1 1 1
4 4 3 2 2 2 4 2 2 2 3 4 4 4 4 3 3 3 3 3 3 3 3 4 4 4 4 4 3 4 4 5 5 5 5 4 4 4 5 4 3 3 3 2 2 1 1 1 1
2 2 0 1 2 3 3 4 3 3 3 3 4 3 3 3 3 3 2 2 2 3 2 3 4 4 4 4 3 3 3 3 4 5 5 5 5 4 5 4 4 3 3 3 2 1 1 1 1
2 2 1 2 3 2 2 1 1 3 4 4 3 2 3 3 3 2 2 2 2 3 3 2 3 3 3 4 3 3 3 3 4 4 5 5 5 5 5 4 4 3 3 3 2 1 1 1 1
1 2 2 2 3 2 1 1 3 4 4 4 3 2 3 4 3 3 2 2 3 3 3 2 2 2 3 3 3 3 3 3 3 4 4 5 5 5 5 4 4 3 3 3 3 2 2 2 2
Wind_Direction
258 245 234 227 225 229 234 235 242 236 232 253 336 334 339 341 16 116 158 120 115 124 129 132 131 131 130 128 124 120 117 115 113 114 113 111 109 105 101 97 95 93 89 86 84 81 78 77 73
261 239 226 229 227 228 232 227 238 233 198 72 11 354 11 61 72 106 125 114 118 123 126 131 130 130 130 127 123 119 117 114 112 111 109 107 105 103 100 97 95 92 89 86 83 81 76 75 74
261 243 222 223 227 228 232 214 220 207 130 141 140 334 355 73 94 111 126 123 117 117 120 125 128 130 129 127 123 119 116 114 111 109 107 105 103 102 99 95 91 89 88 85 81 78 74 74 74
239 217 237 235 234 234 244 245 177 180 161 161 153 123 89 24 67 110 124 123 118 118 119 124 129 129 127 124 121 118 116 114 113 110 107 105 102 100 97 92 87 87 86 83 80 76 73 71 72
237 220 224 233 239 242 244 248 202 212 179 178 187 157 109 75 93 111 122 121 120 118 119 126 130 129 127 124 121 119 116 115 114 111 109 106 103 100 97 93 88 85 84 81 78 75 72 69 66
222 229 224 228 235 240 243 236 219 226 203 189 190 172 121 123 115 122 121 119 119 120 120 125 128 127 126 124 122 120 117 115 113 112 109 106 103 101 97 93 90 86 83 81 79 74 70 66 62
229 232 237 236 236 234 232 223 214 224 217 205 190 161 146 133 127 127 124 124 119 121 125 126 127 125 123 122 122 120 117 116 114 113 111 108 105 102 99 94 90 86 83 80 79 76 69 63 57
244 258 241 239 241 237 226 218 223 233 227 226 202 171 154 137 133 129 127 122 119 124 131 134 133 129 125 120 120 120 119 119 118 116 115 113 110 106 100 94 91 87 84 81 76 70 67 62 52
242 241 237 233 240 244 226 222 230 286 274 298 29 30 116 126 130 132 129 120 120 127 133 136 133 128 124 124 124 123 125 126 125 123 123 121 110 105 101 98 99 93 86 79 73 65 58 56 38
214 231 236 252 257 259 229 214 210 210 206 217 108 101 124 137 145 151 149 149 145 143 139 136 133 129 128 130 131 133 132 134 128 122 112 99 94 96 105 108 107 101 91 80 69 51 33 24 9
216 235 246 263 287 305 274 225 209 235 222 204 169 150 151 153 162 167 167 161 155 148 140 137 132 130 127 126 129 122 120 119 112 106 106 107 104 104 105 109 107 99 89 61 39 30 23 30 19
232 241 250 264 302 305 274 251 233 242 243 216 150 150 155 165 173 176 176 163 151 143 139 133 131 128 124 121 121 121 117 112 108 107 106 104 99 92 88 85 78 68 60 37 12 12 35 30 22
233 243 248 254 263 270 268 251 251 253 272 169 138 149 166 174 181 177 173 161 151 149 144 139 137 131 125 117 123 118 113 112 109 107 100 97 103 104 89 82 68 57 51 32 11 22 32 31 23
232 242 249 247 243 248 248 252 240 247 213 181 167 171 181 184 180 171 167 160 155 151 148 143 143 138 132 129 125 117 112 112 113 107 104 98 96 97 92 83 70 57 41 23 19 34 36 35 27
246 241 247 237 230 232 233 246 234 229 199 202 186 180 179 180 176 170 164 156 152 149 148 146 150 145 140 134 130 118 116 117 114 111 110 104 98 97 94 89 76 54 38 28 23 29 30 27 26
229 229 234 231 218 215 212 240 226 200 195 208 195 180 172 173 174 156 147 147 148 145 145 149 155 146 137 132 128 121 121 119 116 116 115 109 102 101 93 94 85 54 39 35 38 32 32 18 17
209 223 227 232 212 200 210 240 222 187 196 204 193 179 166 162 158 143 142 143 148 147 144 146 146 140 134 126 119 117 117 118 118 118 117 116 109 104 96 95 86 67 50 42 33 39 35 25 13
209 221 223 223 208 207 216 229 201 186 192 194 186 172 163 159 153 144 139 139 139 139 143 143 140 138 133 124 119 115 118 122 118 118 120 120 115 108 101 98 87 74 77 50 46 48 31 34 2
227 229 235 235 209 212 222 229 221 194 191 197 194 175 160 151 138 130 130 130 130 129 136 146 144 147 141 137 140 136 144 143 131 123 125 125 120 114 103 102 92 80 90 73 50 51 47 27 8
236 236 239 244 218 219 222 230 223 204 196 191 189 168 156 136 131 127 127 130 135 139 139 144 148 152 147 147 147 140 139 137 132 124 127 130 124 118 114 111 112 99 95 67 54 53 46 20 24
238 233 238 239 255 240 224 234 214 217 197 182 168 158 146 150 151 142 137 131 138 145 149 152 153 156 152 144 133 125 113 111 120 135 141 136 132 126 118 116 112 106 110 107 70 66 74 58 360
234 245 245 233 213 227 204 230 214 197 186 172 163 151 149 150 152 147 142 141 147 148 143 148 151 153 153 146 149 152 153 154 158 154 150 140 135 131 129 122 115 112 108 112 104 80 76 97 10
229 255 247 232 226 242 214 218 219 179 189 181 170 158 152 144 140 140 140 143 142 142 145 149 148 151 151 154 156 158 154 149 141 142 145 145 141 137 136 131 125 123 114 113 93 79 70 97 126
239 221 241 246 228 233 214 211 222 196 190 175 168 158 142 134 130 127 117 110 111 125 137 145 150 153 152 152 161 161 157 151 149 152 152 152 148 145 145 141 138 134 127 132 128 117 102 85 81
176 147 168 192 212 231 208 207 217 164 152 159 162 155 136 134 133 130 129 133 131 131 138 149 148 152 149 151 165 160 161 160 161 160 159 154 153 155 163 148 146 142 140 137 130 135 153 135 110
205 189 195 199 204 232 196 202 190 140 125 130 123 129 123 122 128 131 141 145 146 147 150 154 155 155 153 156 161 157 158 162 160 154 154 156 157 159 157 153 151 146 143 141 132 139 161 138 151
189 219 263 286 260 207 200 177 156 115 117 125 114 100 113 116 119 127 135 139 142 153 159 160 156 153 154 154 145 151 154 159 157 155 147 148 147 153 153 155 154 152 149 151 145 162 179 157 184
225 227 169 218 227 228 208 201 191 165 142 113 113 111 118 108 102 107 124 130 135 142 141 138 147 149 149 146 153 150 146 146 150 150 151 152 150 147 153 158 159 158 158 158 156 172 173 158 201
191 208 222 238 255 234 211 230 69 156 157 149 139 120 118 108 100 98 102 109 104 109 120 119 126 130 137 145 150 139 139 141 146 152 155 153 148 150 158 162 159 159 164 161 157 174 170 166 231
249 200 189 209 259 266 258 279 23 60 101 124 134 122 111 109 98 87 77 78 95 108 117 119 121 121 133 144 144 137 136 141 157 157 153 147 145 149 154 153 155 160 161 160 166 184 182 192 225
Height
1486 1489 1492 1495 1497 1495 1487 1475 1466 1465 1464 1466 1467 1468 1471 1476 1480 1491 1491 1491 1492 1493 1496 1498 1501 1504 1506 1509 1511 1513 1515 1517 1519 1520 1522 1523 1524 1526 1527 1528 1529 1529 1530 1531 1532 1532 1532 1533 1533
1485 1489 1493 1493 1493 1492 1480 1470 1466 1464 1465 1467 1468 1470 1473 1478 1481 1485 1488 1490 1492 1494 1496 1498 1501 1503 1506 1509 1511 1513 1515 1517 1519 1520 1522 1523 1525 1526 1527 1528 1529 1530 1531 1531 1532 1532 1532 1533 1533
1484 1488 1491 1488 1484 1481 1472 1462 1462 1462 1464 1467 1470 1472 1476 1480 1483 1485 1487 1489 1492 1494 1496 1498 1501 1503 1506 1508 1511 1513 1515 1517 1519 1520 1522 1523 1525 1526 1527 1528 1529 1530 1531 1531 1532 1532 1532 1533 1533
1485 1488 1487 1484 1478 1469 1464 1460 1460 1462 1465 1468 1471 1475 1478 1482 1483 1484 1487 1489 1492 1494 1496 1498 1501 1503 1506 1508 1511 1513 1515 1517 1519 1520 1522 1523 1525 1526 1527 1528 1529 1530 1531 1531 1532 1532 1532 1533 1533
1484 1484 1483 1479 1473 1464 1460 1459 1460 1462 1464 1468 1471 1474 1479 1482 1482 1484 1487 1489 1491 1493 1496 1498 1501 1503 1506 1508 1510 1513 1515 1517 1518 1520 1522 1523 1524 1526 1527 1528 1529 1530 1530 1531 1531 1532 1532 1532 1532
1482 1479 1479 1476 1469 1462 1459 1459 1460 1462 1464 1467 1470 1474 1479 1481 1482 1485 1487 1489 1491 1493 1495 1498 1501 1503 1505 1508 1510 1512 1514 1516 1518 1520 1521 1523 1524 1525 1526 1527 1528 1529 1530 1530 1531 1531 1531 1532 1532
1479 1476 1472 1468 1466 1461 1458 1459 1460 1462 1464 1466 1469 1473 1478 1481 1482 1484 1487 1489 1491 1493 1495 1497 1500 1502 1505 1507 1509 1511 1514 1516 1518 1519 1521 1522 1523 1524 1526 1527 1527 1528 1529 1529 1530 1530 1531 1531 1531
1475 1473 1468 1465 1463 1459 1456 1458 1460 1462 1464 1466 1468 1471 1476 1479 1481 1484 1486 1489 1491 1492 1494 1497 1499 1501 1504 1506 1509 1511 1513 1515 1517 1518 1520 1521 1523 1524 1525 1526 1527 1528 1528 1529 1529 1529 1530 1530 1530
1473 1474 1467 1462 1460 1457 1455 1457 1460 1462 1464 1466 1468 1470 1472 1476 1480 1483 1486 1488 1490 1492 1494 1496 1498 1500 1503 1505 1508 1510 1512 1514 1516 1517 1519 1520 1522 1523 1524 1525 1526 1526 1527 1528 1528 1528 1529 1529 1529
1469 1468 1462 1457 1455 1455 1455 1458 1460 1463 1464 1466 1468 1470 1472 1475 1479 1481 1484 1486 1489 1491 1493 1495 1497 1499 1501 1504 1506 1509 1511 1513 1515 1516 1518 1519 1520 1522 1523 1524 1525 1525 1526 1526 1527 1527 1528 1528 1528
1464 1461 1458 1456 1455 1456 1456 1458 1460 1462 1463 1464 1466 1469 1472 1474 1478 1480 1483 1485 1488 1490 1492 1494 1496 1498 1500 1502 1505 1507 1509 1511 1513 1515 1517 1518 1519 1520 1521 1522 1524 1524 1525 1525 1526 1526 1526 1526 1527
1460 1458 1457 1456 1456 1457 1457 1458 1460 1461 1462 1463 1464 1467 1470 1473 1476 1479 1482 1484 1486 1489 1491 1493 1495 1497 1499 1501 1504 1506 1508 1510 1512 1513 1515 1516 1518 1519 1520 1521 1522 1523 1524 1524 1525 1525 1525 1525 1526
1458 1457 1457 1457 1457 1458 1458 1459 1460 1460 1461 1461 1463 1466 1469 1472 1475 1477 1480 1483 1485 1487 1489 1491 1493 1495 1498 1500 1502 1505 1506 1508 1510 1512 1514 1515 1516 1518 1519 1520 1521 1522 1522 1523 1523 1524 1524 1524 1524
1454 1456 1456 1455 1456 1457 1458 1458 1459 1458 1460 1461 1463 1465 1468 1471 1473 1475 1478 1480 1482 1484 1486 1489 1491 1494 1496 1498 1501 1503 1505 1507 1509 1511 1512 1514 1515 1516 1517 1518 1520 1521 1521 1522 1522 1523 1523 1523 1523
1454 1455 1454 1453 1454 1456 1458 1459 1457 1457 1458 1460 1462 1464 1467 1469 1471 1473 1476 1478 1480 1482 1484 1487 1489 1492 1495 1497 1499 1502 1504 1506 1508 1509 1511 1512 1514 1515 1516 1517 1518 1519 1520 1521 1521 1521 1521 1522 1522
1453 1455 1456 1450 1451 1454 1459 1459 1454 1455 1457 1458 1460 1462 1465 1467 1469 1471 1474 1476 1478 1480 1483 1485 1488 1490 1493 1495 1498 1500 1502 1504 1506 1508 1509 1511 1512 1513 1514 1516 1517 1518 1518 1519 1520 1520 1520 1520 1520
1453 1455 1453 1450 1448 1450 1455 1455 1451 1452 1454 1456 1458 1460 1462 1465 1467 1469 1471 1474 1476 1478 1480 1483 1486 1488 1491 1493 1496 1498 1501 1503 1505 1506 1508 1509 1511 1512 1513 1514 1515 1516 1517 1518 1518 1518 1519 1519 1518
1452 1451 1449 1449 1446 1447 1451 1451 1450 1451 1452 1454 1456 1458 1460 1463 1465 1467 1469 1472 1474 1476 1478 1480 1483 1486 1488 1491 1494 1496 1499 1501 1503 1505 1507 1508 1509 1510 1512 1513 1514 1515 1515 1516 1517 1517 1517 1517 1517
1445 1447 1447 1445 1443 1446 1448 1449 1449 1449 1451 1452 1454 1456 1459 1462 1464 1466 1468 1469 1471 1473 1475 1478 1480 1483 1486 1488 1491 1494 1497 1499 1501 1503 1505 1507 1508 1509 1510 1511 1512 1513 1514 1515 1515 1516 1516 1516 1516
1444 1447 1446 1444 1442 1445 1448 1449 1447 1447 1449 1450 1452 1454 1457 1460 1462 1464 1465 1467 1469 1471 1473 1475 1478 1480 1483 1486 1489 1492 1495 1497 1499 1501 1503 1505 1506 1507 1509 1510 1511 1512 1513 1513 1514 1514 1515 1515 1515
1443 1446 1446 1446 1445 1444 1448 1451 1447 1446 1447 1449 1451 1453 1456 1458 1459 1461 1463 1464 1466 1468 1470 1472 1475 1478 1481 1484 1487 1490 1493 1495 1497 1499 1501 1503 1504 1506 1507 1509 1510 1511 1511 1512 1512 1513 1513 1513 1514
1446 1442 1443 1445 1450 1451 1448 1456 1446 1443 1445 1447 1449 1452 1454 1456 1458 1459 1461 1462 1464 1466 1468 1471 1473 1476 1479 1481 1484 1487 1489 1492 1494 1497 1499 1501 1502 1504 1506 1507 1508 1509 1510 1510 1511 1511 1512 1512 1512
1443 1441 1444 1445 1448 1451 1448 1453 1446 1440 1444 1446 1448 1450 1453 1455 1456 1458 1459 1461 1462 1465 1467 1469 1471 1473 1476 1479 1482 1485 1488 1490 1492 1495 1497 1499 1501 1502 1504 1505 1507 1508 1508 1509 1509 1510 1510 1510 1510
1443 1444 1445 1445 1449 1455 1446 1449 1446 1441 1440 1443 1446 1449 1451 1453 1455 1457 1458 1459 1461 1463 1465 1467 1469 1471 1474 1477 1480 1483 1485 1488 1490 1492 1494 1496 1498 1500 1502 1503 1504 1506 1506 1507 1508 1508 1508 1508 1508
1445 1451 1456 1457 1456 1450 1438 1443 1445 1439 1437 1440 1443 1446 1449 1451 1453 1455 1456 1457 1459 1460 1462 1464 1466 1469 1471 1474 1477 1480 1483 1485 1488 1490 1492 1494 1496 1497 1499 1501 1502 1503 1504 1505 1506 1506 1506 1506 1506
1445 1448 1454 1455 1452 1445 1437 1442 1443 1437 1437 1439 1441 1444 1447 1450 1451 1453 1454 1456 1457 1458 1460 1462 1464 1466 1469 1472 1474 1478 1480 1483 1485 1488 1490 1491 1493 1495 1497 1499 1500 1501 1502 1503 1503 1504 1504 1504 1504
1446 1448 1445 1449 1446 1447 1442 1439 1439 1436 1437 1439 1441 1444 1447 1449 1450 1452 1453 1454 1455 1456 1458 1460 1462 1464 1467 1469 1472 1475 1478 1480 1483 1485 1487 1489 1491 1493 1495 1496 1497 1498 1499 1500 1501 1501 1501 1501 1501
1445 1445 1449 1453 1452 1446 1441 1440 1442 1440 1439 1440 1442 1444 1446 1448 1450 1451 1452 1453 1454 1455 1457 1459 1460 1462 1464 1467 1469 1472 1475 1478 1480 1482 1484 1486 1488 1490 1492 1493 1495 1496 1497 1497 1498 1499 1499 1499 1499
1446 1447 1449 1450 1449 1448 1448 1446 1436 1436 1437 1440 1441 1443 1445 1447 1448 1450 1451 1452 1453 1454 1455 1456 1458 1460 1462 1465 1467 1470 1472 1475 1477 1480 1482 1484 1485 1487 1489 1491 1492 1493 1494 1495 1495 1496 1496 1496 1496
1445 1446 1449 1454 1452 1446 1447 1451 1436 1435 1436 1438 1441 1443 1445 1446 1448 1449 1450 1451 1452 1452 1453 1455 1456 1458 1460 1463 1465 1467 1470 1472 1474 1477 1479 1481 1483 1485 1486 1488 1489 1490 1491 1492 1493 1493 1493 1493 1493